This is the latest recevied weather packets stored in our database for station/object KE0TNI-13. If no packets are shown the sender has not sent any weather packets the latest 10 day(s).
| Time | Temp. | Humidity | Pressure | Rain* | Wind** | Luminosity | Snow |
|---|---|---|---|---|---|---|---|
| 1777826212 | 10.56° C | 30% | 1023 hPa | 0 mm | - | 232 W/m² | - |
| 1777825910 | 10.56° C | 29% | 1022.6 hPa | 0 mm | - | 224 W/m² | - |
| 1777825607 | 10.56° C | 31% | 1022.8 hPa | 0 mm | - | 214 W/m² | - |
| 1777825305 | 10° C | 28% | 1022.8 hPa | 0 mm | - | 207 W/m² | - |
| 1777825001 | 10° C | 30% | 1022.7 hPa | 0 mm | - | 197 W/m² | - |
| 1777824697 | 10° C | 29% | 1022.8 hPa | 0 mm | - | 193 W/m² | - |
| 1777824395 | 10° C | 27% | 1023.1 hPa | 0 mm | - | 195 W/m² | - |
| 1777824090 | 10° C | 29% | 1022.8 hPa | 0 mm | - | 192 W/m² | - |
| 1777823787 | 10° C | 29% | 1023 hPa | 0 mm | - | 188 W/m² | - |
| 1777823484 | 10° C | 30% | 1023 hPa | 0 mm | - | 191 W/m² | - |
| 1777823181 | 10° C | 29% | 1022.7 hPa | 0 mm | - | 195 W/m² | - |
| 1777822879 | 10° C | 28% | 1023.2 hPa | 0 mm | - | 197 W/m² | - |
| 1777822577 | 10° C | 28% | 1022.7 hPa | 0 mm | - | 191 W/m² | - |
| 1777822274 | 10° C | 28% | 1022.7 hPa | 0 mm | - | 190 W/m² | - |
| 1777821971 | 9.44° C | 29% | 1022.7 hPa | 0 mm | - | 182 W/m² | - |
| 1777821669 | 9.44° C | 30% | 1022.7 hPa | 0 mm | - | 178 W/m² | - |
| 1777821367 | 9.44° C | 32% | 1023 hPa | 0 mm | - | 168 W/m² | - |
| 1777821063 | 9.44° C | 31% | 1023.1 hPa | 0 mm | - | 163 W/m² | - |
| 1777820760 | 8.89° C | 31% | 1023 hPa | 0 mm | - | 155 W/m² | - |
| 1777820456 | 8.89° C | 32% | 1023.3 hPa | 0 mm | - | 149 W/m² | - |
| 1777820153 | 8.89° C | 31% | 1023.2 hPa | 0 mm | - | 143 W/m² | - |
| 1777819851 | 8.89° C | 31% | 1023.3 hPa | 0 mm | - | 136 W/m² | - |
| 1777819548 | 8.89° C | 30% | 1023.2 hPa | 0 mm | - | 131 W/m² | - |
| 1777819245 | 8.89° C | 34% | 1023.3 hPa | 0 mm | - | 124 W/m² | - |
| 1777818942 | 8.89° C | 30% | 1023.6 hPa | 0 mm | - | 117 W/m² | - |
* Rain latest hour (hover to see other rain measurements)
** Current wind speed in m/s (hover to see current wind gust speed)